sat.trackr.live / text

‹ back to catalog

STARLINK-34362

NORAD 64292 · 2025-123B

PAYLOAD ACTIVE UNKNOWN

§ Identity

Operator
Country
US
Launch date
2025-06-08
Launch site
AFWTR
Launch vehicle
Mass (kg)
RCS (m²)

Purposes: comms

External: N2YO · Heavens-Above · Gunter

§ Orbital elements

Epoch: 2026-05-25T01:04:02.455104Z

Period
96.11 min
Inclination
70.0023°
Eccentricity
0.0002966
Mean motion
14.98330864 rev/d
Perigee alt
570.0 km
Apogee alt
574.1 km
Semi-major
6,950.2 km
B*
-4.4653e-4
RAAN
2.0258°
Arg perigee
274.0508°
Mean anomaly
86.0312°
Rev number
5,427

§ Raw data

STARLINK-343621 64292U 25123B   26145.04447286 -.00005417  00000+0 -44653-3 0  99922 64292  70.0023   2.0258 0002966 274.0508  86.0312 14.98330864 54277

JSON: /api/v1/satellites/64292 · /tle

For live sub-satellite position, see the globe view (requires WebGL).

§ Visibility from observer

Set your observer location to see the next 7 days of passes ≥ 10°. The values pass through the URL so the page stays shareable.

No JS? Fill the form by hand. The geolocation button needs JavaScript.